Location: Unspecified
(0.0000°N, 0.0000°E)
Time: 22:01:32
(UTC+00:00)

A-11 Canister half - Pass Details

Date: 14 June 2024
Orbit: 1515 x 1684 km, 47.2° (Epoch: 20 June)

Event Time Altitude Azimuth Distance (km) Brightness Sun altitude
Rises 04:44:49 0° 321° (NW) 4,670 11.4 -17.3°
Reaches altitude 10° 04:47:51 10° 321° (NW) 3,678 10.8 -16.6°
Maximum altitude 04:57:07 89° 48° (NE) 1,515 8.9 -14.5°
Drops below altitude 10° 05:06:25 10° 140° (SE) 3,691 11.2 -12.4°
Sets 05:09:28 0° 140° (SE) 4,688 11.8 -11.7°
